This demonstration page uses our WeatherBlox Daily Observations layout. Learn more.

39.92423, -83.80882

Hourly Observations for September 22, 2016

Temp ( °F °C ) Dew Point ( °F °C ) Humidity (%) Winds ( mph kmh ) Pressure ( in mb ) Visibility ( mi km ) Precip ( " mm )
12:56 am 00:56 Clear 62 16.7 57 13.9 84 84 Calm 30.12 1020 10 16.0934 0 0
1:56 am 01:56 Clear 60 15.6 57 13.9 90 90 ENE 3 6 30.11 1020 10 16.0934 0 0
2:56 am 02:56 Clear 59 15 56 13.3 90 90 NE 5 7 30.12 1020 10 16.0934 0 0
3:56 am 03:56 Clear 58 14.4 55 12.8 90 90 ESE 5 7 30.11 1020 10 16.0934 0 0
4:56 am 04:56 Clear 58 14.4 55 12.8 90 90 NE 5 7 30.11 1020 10 16.0934 0 0
5:56 am 05:56 Clear 59 15 56 13.3 90 90 ENE 3 6 30.11 1020 10 16.0934 0 0
6:56 am 06:56 Clear 58 14.4 55 12.8 90 90 N 3 6 30.14 1021 10 16.0934 0 0
7:56 am 07:56 Sunny 57 13.9 56 13.3 96 96 E 3 6 30.16 1021 10 16.0934 0 0
8:56 am 08:56 Sunny 65 18.3 61 16.1 87 87 Calm 30.14 1021 10 16.0934 0 0
9:56 am 09:56 Sunny 74 23.3 64 17.8 71 71 ESE 3 6 30.14 1021 10 16.0934 0 0
10:56 am 10:56 Sunny 80 26.7 63 17.2 56 56 VRB 5 7 30.14 1021 10 16.0934 0 0
11:56 am 11:56 Sunny 83 28.3 62 16.7 49 49 VRB 6 9 30.14 1021 10 16.0934 0 0
12:56 pm 12:56 Sunny 84 28.9 60 15.6 44 44 WNW 6 9 30.12 1020 10 16.0934 0 0
1:56 pm 13:56 Sunny 85 29.4 58 14.4 40 40 WSW 5 7 30.11 1020 10 16.0934 0 0
2:56 pm 14:56 Sunny 85 29.4 58 14.4 40 40 W 5 7 30.09 1019 10 16.0934 0 0
3:56 pm 15:56 Sunny 86 30 58 14.4 39 39 W 8 13 30.07 1018 10 16.0934 0 0
4:56 pm 16:56 Sunny 86 30 58 14.4 39 39 NNW 3 6 30.05 1018 10 16.0934 0 0
5:56 pm 17:56 Sunny 85 29.4 61 16.1 45 45 WNW 5 7 30.05 1018 10 16.0934 0 0
6:56 pm 18:56 Sunny 82 27.8 62 16.7 51 51 Calm 30.05 1018 10 16.0934 0 0
7:56 pm 19:56 Clear 71 21.7 63 17.2 76 76 Calm 30.06 1018 10 16.0934 0 0
8:56 pm 20:56 Clear 68 20 62 16.7 81 81 Calm 30.05 1018 10 16.0934 0 0
9:56 pm 21:56 Clear 67 19.4 62 16.7 84 84 Calm 30.06 1018 10 16.0934 0 0
10:56 pm 22:56 Clear 64 17.8 61 16.1 90 90 ENE 3 6 30.05 1018 10 16.0934 0 0
11:56 pm 23:56 Clear 64 17.8 61 16.1 90 90 ESE 3 6 30.05 1018 10 16.0934 0 0

Powered by AerisWeather